Location: Unspecified
(0.0000°N, 0.0000°E)
Time: 13:28:18
(UTC+00:00)

Transit 2A - Pass Details

Date: 15 December 2021
Orbit: 591 x 967 km, 66.7° (Epoch: 21 January)

Event Time Altitude Azimuth Distance (km) Brightness Sun altitude
Rises 20:43:44 0° 234° (SW) 3,072 10.1 -38.0°
Reaches altitude 10° 20:46:52 10° 256° (WSW) 2,227 9.1 -38.7°
Enters shadow 20:48:48 15° 278° (W) 1,950 8.5 -39.1°
